Regional Weather Roundup
Issued by NWS

Home | Current Version | Previous Version | Graphics & Text | Print | Product List | Glossary On
Versions: 1 2 3 4 5 6 7 8 9 10 11 12 13 14 15 16 17 18 19 20 21 22 23 24 25 26 27 28 29 30 31 32 33 34 35 36 37 38 39 40 41 42 43 44 45 46 47 48 49 50
000
ASUS43 KMKX 310621
RWRWI

WISCONSIN REGIONAL WEATHER ROUNDUP
NATIONAL WEATHER SERVICE MILWAUKEE/SULLIVAN WI
100 AM CDT SUN AUG 31 2014

NOTE: "FAIR" INDICATES FEW OR NO CLOUDS BELOW 12,000 FEET WITH NO
SIGNIFICANT WEATHER AND/OR OBSTRUCTIONS TO VISIBILITY.

WIZ001-002-006>008-014>016-023>028-310700-
NORTHWEST WISCONSIN

CITY           SKY/WX    TMP DP  RH WIND       PRES   REMARKS
SUPERIOR ARPT  FAIR      58  58  97 CALM      29.90R
6HR MIN TEMP:  58; 6HR MAX TEMP:  63;

ASHLAND        FOG       51  50  96 CALM      29.92S VSB 1/2
6HR MIN TEMP:  50; 6HR MAX TEMP:  61;

HAYWARD        CLOUDY    60  57  89 CALM      29.92S
6HR MIN TEMP:  60; 6HR MAX TEMP:  64;

SIREN          FAIR      59  58  95 SE3       29.90S
6HR MIN TEMP:  59; 6HR MAX TEMP:  69;

RICE LAKE      FAIR      58  56  93 E3        29.92S
6HR MIN TEMP:  56; 6HR MAX TEMP:  66; 6HR PCP:  0.01;

LADYSMITH      CLOUDY    59  57  94 CALM      29.94S
6HR MIN TEMP:  57; 6HR MAX TEMP:  67;

EAU CLAIRE     FAIR      57  57 100 E3        29.90S FOG
6HR MIN TEMP:  57; 6HR MAX TEMP:  66;

MENOMONIE      FAIR      59  58  97 CALM      29.90F FOG
6HR MIN TEMP:  58; 6HR MAX TEMP:  67;

NEW RICHMOND   CLOUDY    61  61  98 CALM      29.90R
6HR MIN TEMP:  60; 6HR MAX TEMP:  67;

OSCEOLA        CLOUDY    62  62 100 CALM      29.92S
6HR MIN TEMP:  62; 6HR MAX TEMP:  70;

$$

WIZ003>005-009-010-017-018-310700-
NORTH CENTRAL WISCONSIN

CITY           SKY/WX    TMP DP  RH WIND       PRES   REMARKS
WOODRUFF       MOCLDY    55  54  95 CALM      29.94S
6HR MIN TEMP:  55; 6HR MAX TEMP:  60;

RHINELANDER    FAIR      55  54  96 CALM      29.94S
6HR MIN TEMP:  55; 6HR MAX TEMP:  61;

EAGLE RIVER    FOG       54  54 100 CALM      29.93F VSB 1
LAND O LAKES   CLOUDY    57  55  95 N3        29.94F
6HR MIN TEMP:  57; 6HR MAX TEMP:  58;

PHILLIPS       FAIR      55  54  97 CALM      29.92F
6HR MIN TEMP:  55; 6HR MAX TEMP:  63;

TOMAHAWK       FAIR      54  53  96 CALM      29.94S FOG
6HR MIN TEMP:  54; 6HR MAX TEMP:  61;

MEDFORD        FAIR      53  53  99 CALM      29.93S
6HR MIN TEMP:  53; 6HR MAX TEMP:  62;

MERRILL        MOCLDY    55  55 100 CALM      29.93S
6HR MIN TEMP:  54; 6HR MAX TEMP:  63;

$$

WIZ029-030-035-036-043>047-310700-
CENTRAL WISCONSIN

CITY           SKY/WX    TMP DP  RH WIND       PRES   REMARKS
WAUSAU         CLOUDY    62  57  83 N6        29.91S
6HR MIN TEMP:  62; 6HR MAX TEMP:  66;

MOSINEE        CLOUDY    61  59  94 NE5       29.93S
MARSHFIELD     CLOUDY    64  60  87 E6        29.92S
6HR MIN TEMP:  64; 6HR MAX TEMP:  67;

STEVENS POINT  MOCLDY    61  59  93 NE5       29.91S
6HR MIN TEMP:  61; 6HR MAX TEMP:  68;

WAUPACA        FAIR      64  63  94 CALM      29.91R
6HR MIN TEMP:  64; 6HR MAX TEMP:  73; 6HR PCP:  0.01;

WAUTOMA        CLOUDY    66  64  94 CALM      29.92R
6HR MIN TEMP:  66; 6HR MAX TEMP:  74;

WISC RAPIDS    FOG       60  59  96 CALM      29.92R VSB 3/4
6HR MIN TEMP:  60; 6HR MAX TEMP:  71;

CAMP DOUGLAS   FAIR      63  63 100 SW2       29.91S
6HR MIN TEMP:  62; 6HR MAX TEMP:  72;

$$

WIZ011>013-019>022-031-037>040-048>050-310700-
NORTHEAST WISCONSIN

CITY           SKY/WX    TMP DP  RH WIND       PRES   REMARKS
ANTIGO         FAIR      57  56  97 CALM      29.93S
6HR MIN TEMP:  57; 6HR MAX TEMP:  62;

STURGEON BAY   CLOUDY    63  57  82 N6        29.89S
6HR MIN TEMP:  63; 6HR MAX TEMP:  68;

GREEN BAY      CLOUDY    65  61  87 CALM      29.90R
6HR MIN TEMP:  65; 6HR MAX TEMP:  71;

MANITOWOC      CLOUDY    66  62  87 N5        29.91R
6HR MIN TEMP:  66; 6HR MAX TEMP:  74;

APPLETON       CLOUDY    63  61  94 CALM      29.91R
CLINTONVILLE   CLOUDY    64  59  82 N3        29.91R
OSHKOSH        MOCLDY    66  63  90 N5        29.90R
6HR MIN TEMP:  65; 6HR MAX TEMP:  73;

$$

WIZ032>034-041-042-053>061-310700-
SOUTHWEST WISCONSIN

CITY           SKY/WX    TMP DP  RH WIND       PRES   REMARKS
LA CROSSE      FAIR      66  62  87 NE3       29.89F
6HR MIN TEMP:  65; 6HR MAX TEMP:  76;

SPARTA         FAIR      63  61  94 CALM      29.91S
6HR MIN TEMP:  63; 6HR MAX TEMP:  72;

VIROQUA        CLOUDY    64  64 100 CALM      29.91F
6HR MIN TEMP:  64; 6HR MAX TEMP:  72;

BOSCOBEL       FOG       65  63  93 CALM      29.90S VSB 1/4
6HR MIN TEMP:  65; 6HR MAX TEMP:  78; 6HR PCP:  0.01;

PRAIRIE DU CHI FAIR      65  64  93 E3        29.89S
6HR MIN TEMP:  65; 6HR MAX TEMP:  78;

PLATTEVILLE    FAIR      66  64  94 CALM      29.92S
6HR MIN TEMP:  66; 6HR MAX TEMP:  75;

$$

WIZ056-057-062-063-064-067-068-310700-
SOUTH CENTRAL WISCONSIN

CITY           SKY/WX    TMP DP  RH WIND       PRES   REMARKS
BARABOO/DELLS  CLOUDY    64  63  94 CALM      29.91S
6HR MIN TEMP:  64; 6HR MAX TEMP:  75;

LONE ROCK      FAIR      70  65  84 NE5       29.90S
6HR MIN TEMP:  70; 6HR MAX TEMP:  80;

WATERTOWN      FAIR      63  63 100 CALM      29.91R FOG
6HR MIN TEMP:  63; 6HR MAX TEMP:  76;

MADISON        FAIR      66  64  93 CALM      29.91R FOG
6HR MIN TEMP:  65; 6HR MAX TEMP:  78;

MIDDLETON      MOCLDY    64  64  99 CALM      29.92R VSB 1/2
6HR MIN TEMP:  64; 6HR MAX TEMP:  77;

MONROE         FAIR      64  63  94 SW7       29.92S
JANESVILLE     FAIR      68  64  88 CALM      29.91S
$$

WIZ051-052-058>065-066-070>072-310700-
SOUTHEAST WISCONSIN

CITY           SKY/WX    TMP DP  RH WIND       PRES   REMARKS
MILWAUKEE      FAIR      71  66  84 NW7       29.90R
6HR MIN TEMP:  70; 6HR MAX TEMP:  77;

WAUKESHA       FAIR      64  63  94 CALM      29.92S
MILWAUKEE/TIMM FAIR      66  63  88 CALM      29.91S
RACINE         FAIR      70  65  84 SW3       29.92R
6HR MIN TEMP:  69; 6HR MAX TEMP:  77;

BURLINGTON     FAIR      61  61  99 SW5       29.91S
6HR MIN TEMP:  61; 6HR MAX TEMP:  73;

KENOSHA        FAIR      68  66  93 SW8       29.91R
6HR MIN TEMP:  67; 6HR MAX TEMP:  76;

FOND DU LAC    MOCLDY    65  63  93 NW3       29.91R
6HR MIN TEMP:  64; 6HR MAX TEMP:  72; 6HR PCP:  0.01;

SHEBOYGAN      CLOUDY    63  62  97 CALM      29.91R
6HR MIN TEMP:  61; 6HR MAX TEMP:  72;

WEST BEND      MOCLDY    64  61  88 CALM      29.91S
JUNEAU         FAIR      64  64  98 CALM      29.92R
6HR MIN TEMP:  64; 6HR MAX TEMP:  73;

$$

LSZ147-162-310700-
LAKE SUPERIOR

STATION/POSITION TIME  TEMP    WIND        PRES    WAVE
                       AIR SEA DIR/SP/G            HT/PER
                 (UTC) (F)     (DEG/KT/KT) (MB)    (FT/S)
W MID LAKE BUOY  0550   58 58  290/  4/  4 1013.0R   1
DEVILS ISLAND    0600   60        CALM     1012.9F
PORT WING        0500   60      CALM  /  3 1013.2S
SAXON HARBOR     0500   57        CALM     1013.2S
$$

LMZ867-665-643>646-310700-
LAKE MICHIGAN

STATION/POSITION TIME  TEMP    WIND        PRES    WAVE
                       AIR SEA DIR/SP/G            HT/PER
                 (UTC) (F)     (DEG/KT/KT) (MB)    (FT/S)
N MID LAKE BUOY  0550   62 65  310/ 14/ 16 1011.0R   2/ 4
NORTHPORT PIER   0500   64     310/ 11/ 15 1011.5R
SISTER BAY       0426   64     330/ 14/ 16   N/A
KEWAUNEE LAKESHO 0500   64     340/  2/  4 1011.4R
SHEBOYGAN LAKESH 0600   67 54   10/  5/  5 1012.9R
ATWATER BUOY     0600   68     200/  4/  4 1013.6R
MILWAUKEE LAKESH 0600   71     270/  4/  5   N/A
S MID LAKE BUOY  0550   71 69  230/  8/ 10 1012.3S   1/ 4
KENOSHA   LAKESH 0600   73     240/  7/ 10 1012.2S
$$

TC  - TEMPERATURE IN CELSIUS
VSB - VISIBILITY IN STATUTE MILES
WCI - WIND CHILL INDEX
HX  - HEAT INDEX




USA.gov is the U.S. government's official web portal to all federal, state and local government web resources and services.